Total_Precipitation_Accumulation
0.06 0.12 0.18 0.22 0.19 0.15 0.12 0.10 0.15 0.25 0.43 0.56 0.66 0.73 0.77 0.77 0.72 0.69 0.71 0.70 0.64 0.63 0.70 0.81 0.95 1.05 1.16 1.23 1.42 1.51 1.73 1.92 2.00 2.10 2.11 2.11 2.21 2.22 2.15 2.17 2.19 2.34 2.39 2.41
0.05 0.08 0.13 0.16 0.19 0.14 0.11 0.10 0.11 0.22 0.48 0.57 0.62 0.67 0.76 0.75 0.73 0.71 0.69 0.71 0.76 0.80 0.81 0.84 0.90 1.00 1.10 1.18 1.39 1.62 1.92 2.22 2.26 2.32 2.30 2.39 2.54 2.61 2.50 2.48 2.59 2.62 2.53 2.46
0.08 0.11 0.13 0.18 0.18 0.16 0.18 0.17 0.20 0.31 0.46 0.56 0.63 0.70 0.89 0.89 0.82 0.82 0.83 0.85 0.92 1.03 1.01 0.97 1.00 1.03 1.13 1.26 1.45 1.74 2.03 2.29 2.45 2.52 2.57 2.66 2.75 2.76 2.72 2.79 2.98 2.98 2.84 2.64
0.13 0.18 0.25 0.23 0.23 0.22 0.27 0.29 0.33 0.42 0.47 0.63 0.84 0.93 1.09 1.13 1.00 0.96 0.89 0.87 0.94 1.11 1.15 1.13 1.14 1.19 1.34 1.53 1.79 2.08 2.28 2.43 2.54 2.58 2.63 2.69 2.76 2.66 2.70 2.85 2.92 2.94 2.84 2.68
0.24 0.28 0.29 0.33 0.36 0.38 0.43 0.57 0.56 0.66 0.74 0.85 0.96 0.97 1.06 0.98 0.87 0.87 0.87 0.95 1.03 1.15 1.27 1.37 1.41 1.47 1.55 1.71 1.94 2.20 2.39 2.41 2.41 2.52 2.62 2.67 2.70 2.72 2.76 2.79 2.67 2.55 2.46 2.43
0.39 0.42 0.46 0.50 0.53 0.49 0.57 1.05 1.08 1.07 1.01 0.97 1.01 1.22 1.20 0.97 0.88 0.91 0.99 1.06 1.17 1.19 1.24 1.37 1.48 1.51 1.63 1.83 2.06 2.26 2.42 2.44 2.43 2.56 2.68 2.72 2.79 2.83 2.76 2.67 2.58 2.48 2.33 2.30
0.55 0.61 0.59 0.56 0.53 0.54 0.94 1.28 1.21 1.17 1.19 1.12 1.19 1.26 1.24 1.12 1.10 1.07 1.09 1.19 1.23 1.27 1.26 1.31 1.43 1.54 1.69 1.82 1.96 2.10 2.27 2.40 2.57 2.77 2.85 2.85 2.87 2.79 2.70 2.59 2.58 2.54 2.41 2.30
0.75 0.95 1.03 0.73 0.62 0.89 1.21 1.06 1.20 1.34 1.31 1.30 1.26 1.19 1.20 1.23 1.23 1.18 1.13 1.21 1.27 1.32 1.43 1.50 1.57 1.61 1.71 1.72 1.82 2.02 2.09 2.24 2.34 2.51 2.64 2.66 2.71 2.65 2.66 2.60 2.49 2.40 2.28 2.15
1.03 1.18 1.01 0.86 0.90 1.03 1.09 1.18 1.24 1.41 1.49 1.42 1.44 1.36 1.24 1.28 1.23 1.38 1.47 1.46 1.44 1.37 1.42 1.49 1.58 1.68 1.78 1.78 1.75 1.82 1.93 2.10 2.27 2.36 2.53 2.63 2.67 2.63 2.53 2.43 2.27 2.14 2.05 1.95
1.28 1.34 1.19 1.13 1.09 1.04 1.06 1.18 1.26 1.40 1.51 1.59 1.54 1.39 1.28 1.23 1.16 1.14 1.22 1.27 1.38 1.36 1.41 1.60 1.53 1.57 1.70 1.77 1.76 1.82 1.92 1.98 2.10 2.20 2.30 2.52 2.58 2.49 2.34 2.14 2.02 1.98 1.94 1.93
1.52 1.57 1.35 1.28 1.22 1.28 1.28 1.26 1.25 1.33 1.42 1.50 1.41 1.32 1.31 1.25 1.14 1.12 1.12 1.12 1.16 1.19 1.26 1.37 1.39 1.42 1.52 1.62 1.67 1.67 1.68 1.69 1.71 1.88 2.05 2.20 2.26 2.18 2.03 1.90 1.96 1.98 1.91 1.87
1.79 1.59 1.57 1.60 1.49 1.47 1.56 1.53 1.48 1.50 1.63 1.64 1.42 1.30 1.24 1.14 1.08 1.04 0.99 0.99 1.06 1.10 1.11 1.18 1.26 1.38 1.47 1.63 1.76 1.78 1.73 1.67 1.60 1.58 1.69 1.90 2.10 2.16 2.02 1.79 1.80 1.74 1.66 1.61
1.61 1.53 1.59 1.66 1.70 1.73 1.82 1.75 1.66 1.67 1.69 1.62 1.47 1.29 1.18 1.11 1.01 0.96 0.92 0.93 1.03 1.13 1.20 1.29 1.28 1.23 1.29 1.46 1.66 1.80 1.74 1.69 1.58 1.52 1.56 1.70 1.92 2.13 2.20 1.98 1.73 1.58 1.40 1.25
1.50 1.61 1.83 1.86 1.91 1.89 1.84 1.84 1.81 1.82 1.71 1.62 1.52 1.34 1.22 1.22 1.15 1.05 1.01 1.08 1.20 1.31 1.39 1.42 1.40 1.37 1.31 1.35 1.45 1.51 1.52 1.51 1.39 1.33 1.41 1.54 1.78 2.05 2.21 2.17 1.97 1.66 1.34 1.15
1.70 1.70 1.75 1.71 1.81 1.81 1.81 1.85 1.78 1.86 1.82 1.74 1.56 1.39 1.24 1.16 1.15 1.14 1.14 1.27 1.44 1.48 1.45 1.42 1.44 1.40 1.27 1.21 1.27 1.35 1.41 1.41 1.36 1.33 1.35 1.39 1.62 1.93 2.14 2.18 2.07 1.86 1.51 1.23
1.93 1.80 1.62 1.62 1.80 1.80 1.79 1.80 1.69 1.73 1.80 1.73 1.60 1.46 1.41 1.36 1.30 1.24 1.26 1.39 1.65 1.72 1.59 1.52 1.51 1.44 1.30 1.22 1.19 1.20 1.25 1.26 1.15 1.13 1.17 1.19 1.29 1.50 1.80 1.98 1.94 1.86 1.61 1.20
1.86 1.96 1.86 1.80 1.86 1.88 1.83 1.70 1.62 1.68 1.75 1.78 1.74 1.64 1.61 1.60 1.58 1.57 1.60 1.64 1.76 1.78 1.60 1.50 1.46 1.36 1.25 1.23 1.25 1.20 1.18 1.17 1.08 0.96 1.00 1.07 1.15 1.36 1.65 1.84 1.80 1.72 1.56 1.24
1.60 1.64 1.65 1.73 1.85 1.91 1.79 1.61 1.54 1.56 1.63 1.72 1.76 1.72 1.74 1.80 1.85 1.93 1.93 1.85 1.74 1.59 1.43 1.34 1.33 1.26 1.16 1.07 1.03 0.99 0.98 1.00 0.96 0.93 1.00 1.04 1.08 1.27 1.55 1.72 1.67 1.58 1.51 1.35
1.48 1.48 1.50 1.53 1.63 1.66 1.57 1.54 1.48 1.38 1.34 1.42 1.50 1.56 1.63 1.68 1.77 1.94 1.90 1.90 1.88 1.72 1.43 1.24 1.26 1.16 1.09 1.05 1.03 0.95 0.88 0.87 0.85 0.84 0.89 0.97 1.10 1.27 1.42 1.49 1.50 1.50 1.37 1.25
1.56 1.52 1.51 1.58 1.58 1.51 1.42 1.36 1.39 1.33 1.33 1.39 1.34 1.34 1.43 1.48 1.56 1.76 1.81 1.87 1.85 1.67 1.40 1.24 1.09 1.01 0.95 0.91 0.92 0.92 0.95 1.00 0.99 0.99 1.02 1.11 1.20 1.31 1.38 1.36 1.31 1.29 1.27 1.27
1.47 1.46 1.39 1.50 1.48 1.35 1.26 1.17 1.24 1.24 1.27 1.27 1.20 1.19 1.20 1.23 1.31 1.52 1.80 1.97 1.74 1.43 1.23 1.18 1.03 0.92 0.85 0.86 0.84 0.81 0.87 0.98 1.07 1.13 1.17 1.22 1.28 1.31 1.32 1.30 1.23 1.19 1.20 1.22
1.37 1.34 1.32 1.34 1.35 1.30 1.11 1.06 1.11 1.13 1.14 1.06 0.98 1.03 1.05 1.13 1.22 1.35 1.52 1.75 1.73 1.60 1.24 1.02 0.93 0.88 0.85 0.85 0.79 0.79 0.83 0.87 1.00 1.04 1.08 1.16 1.26 1.34 1.33 1.26 1.18 1.16 1.18 1.20
1.44 1.28 1.27 1.30 1.35 1.26 1.11 1.04 1.05 1.15 1.10 1.03 1.02 1.03 1.01 1.09 1.19 1.43 1.56 1.42 1.44 1.56 1.27 1.10 1.11 0.99 0.85 0.80 0.79 0.78 0.81 0.87 1.00 1.06 1.06 1.11 1.13 1.17 1.20 1.16 1.15 1.14 1.17 1.13
1.49 1.34 1.26 1.23 1.24 1.22 1.21 1.08 1.01 1.12 1.09 0.99 0.95 0.91 0.93 1.03 1.06 1.13 1.28 1.37 1.38 1.40 1.18 1.12 1.10 0.95 0.81 0.76 0.83 0.88 0.96 1.04 1.06 1.04 0.99 1.02 1.02 1.00 1.01 0.98 0.95 1.00 1.03 1.03
1.49 1.37 1.27 1.20 1.23 1.19 1.12 1.06 1.04 1.08 1.01 0.98 0.98 0.96 0.92 0.95 1.06 1.13 1.18 1.19 1.31 1.34 1.20 1.14 1.03 0.95 0.84 0.78 0.89 1.03 1.08 1.00 0.96 0.95 0.94 0.94 0.98 0.96 0.92 0.95 0.99 0.95 0.93 0.93
1.49 1.40 1.33 1.23 1.18 1.12 1.05 1.04 1.09 1.10 1.03 1.04 1.06 0.99 0.92 0.94 1.00 1.05 1.11 1.11 1.15 1.26 1.18 1.04 0.88 0.85 0.88 0.90 0.92 0.98 0.97 0.92 0.90 0.91 0.91 0.92 0.96 0.98 0.94 0.97 0.98 0.94 0.94 0.96
1.46 1.40 1.37 1.29 1.21 1.11 1.08 1.11 1.14 1.18 1.15 1.14 1.14 1.12 1.10 1.07 1.08 1.14 1.12 1.09 1.07 1.05 0.99 0.89 0.80 0.76 0.78 0.83 0.82 0.83 0.84 0.85 0.83 0.83 0.86 0.89 0.93 0.95 0.90 0.88 0.88 0.88 0.88 0.87